Location: Colorado Springs
(38.8340°N, 104.8210°W)
Time: 19:42:17
(UTC-06:00)

Envisat - Pass Details

Date: 16 October 2017
Orbit: 764 x 766 km, 98.2° (Epoch: 18 October)

Event Time Altitude Azimuth Distance (km) Brightness Sun altitude
Exits shadow 22:06:42 12° 304° (NW) 2,185 5.9 -44.0°
Drops below altitude 10° 22:07:13 10° 309° (NW) 2,306 6.1 -44.1°
Sets 22:10:20 0° 329° (NNW) 3,237 6.9 -44.6°
